www.pogodaiklimat.ru

Погода и климат >> Архив погоды >> Россия >> Якутия >> Верхоянск


АРХИВ ПОГОДЫ в Верхоянске

Время (UTC), дата Ветер
(напр.,м/с)
 
Видим.   Явления Облачность Т
(С)
Тd
(С)
f
(%)
Тe
(С)
Тes
(С)
Комфортность P
(гПа)
Po
(гПа)
Тmin
(С)
Tmax
(С)
R
(мм)
R24
(мм)
S
(см)
21 10.09 СВ 2 50 км 9/0
[Ac trans Ci fib]
-1.0 -3.9 81 -5 -5 прохладно 1014.6 997.3 -1.9
00 11.09 СВ 3 50 км 4/0
[Ac trans]
+2.1 -3.6 66 -2 -0 прохладно 1013.3 996.2
03 11.09 СВ 4 50 км 8/0
[Ac trans Ci fib]
+8.4 -1.2 51 +6 +8 по сезону 1010.2 993.5
06 11.09 В 1 50 км 10/0
[As trans]
+11.2 +0.6 48 +11 +13 тепло 1008.2 991.8
09 11.09 С 1 50 км 9/0
[Ac trans Ci fib]
+10.9 +1.1 51 +11 +11 тепло 1007.0 990.5 +11.9
12 11.09 штиль 0 20 км 8/1 1000 м
[Cb cap Ac trans Ci fib]
+5.4 +0.8 72 +5 +5 по сезону 1007.0 990.3
15 11.09 СВ 1 20 км 10/0
[Ac trans Cs]
+3.0 -0.8 76 +2 +2 по сезону 1007.1 990.2
18 11.09 В 1 20 км 8/0
[Ac trans Ci fib]
+0.5 -0.9 90 -2 -2 по сезону 1007.3 990.2
21 11.09 штиль 0 50 км 4/0
[Ac trans Ci fib]
-1.1 -1.7 96 -2 -2 по сезону 1007.9 990.7 -1.5
00 12.09 штиль 0 50 км 8/0
[Ac trans Ci fib]
+7.0 +1.5 68 +6 +9 тепло 1007.5 990.9 -1.4
03 12.09 СЗ 1 50 км 4/0
[Ac trans Ci fib]
+12.9 +3.6 53 +13 +17 тепло 1006.5 990.1
06 12.09 ЮЗ 2 50 км 3/1 1500 м
[Cu hum Ci fib]
+17.3 +3.6 40 +18 +20 тепло 1005.2 989.2
09 12.09 ЮЗ 1 50 км ясно +16.2 +3.4 42 +17 +17 тепло 1004.8 988.7 +17.4
12 12.09 штиль 0 20 км ясно +4.2 +0.8 79 +3 +3 по сезону 1005.5 988.7
15 12.09 штиль 0 20 км ясно -0.3 -1.2 94 -2 -2 по сезону 1005.3 988.2
18 12.09 В 2 20 км ясно -0.1 -0.7 96 -4 -4 по сезону 1004.1 987.1
21 12.09 СВ 1 50 км 5/1 1000 м
[Sc Ci fib]
-1.2 -1.8 96 -4 -4 прохладно 1003.0 985.9 -2.0
00 13.09 СВ 2 50 км 10/0
[Cs]
+6.9 +3.3 78 +5 +6 тепло 1000.5 983.9
03 13.09 С 2 50 км 10/4 1000 м
[Sc Cs]
+11.2 +3.4 59 +10 +12 тепло 996.9 980.7
06 13.09 СВ 3 50 км 10/0
[As op]
+13.8 +3.0 48 +13 +13 тепло 993.2 977.2
09 13.09 ЮВ 1 20 км слаб. дождь 10/0 1350 м
[As op]
+9.5 +6.7 83 +9 +9 тепло 991.9 975.7 +13.9 0.8
12 13.09 СВ 1 10 км слаб. дождь 10/0 1440 м
[As op]
+7.8 +6.2 90 +7 +7 тепло 990.4 974.0
15 13.09 С 1 20 км {дождь} 9/9 930 м
[Sc]
+7.8 +6.5 91 +7 +7 тепло 989.5 973.1
18 13.09 ЮЗ 1 10 км слаб. дождь 10/0 1050 м
[As op]
+6.7 +6.0 95 +6 +6 тепло 989.6 973.1
21 13.09 ЮЗ 4 50 км в посл. час переохл. осадки (гололёд) 10/10 700 м
[Sc]
+7.1 +6.2 94 +3 +3 тепло 990.0 973.6 +6.7 1
00 14.09 Ю 6 50 км {дождь} 10/10 660 м
[Sc]
+8.0 +5.3 83 +4 +4 тепло 991.3 974.9
03 14.09 ЮЗ 5 50 км 9/9 1110 м
[Sc]
+9.9 +1.3 55 +7 +7 тепло 993.3 977.1
06 14.09 ЮЗ 5 50 км 9/9 1230 м
[Cb cap]
+10.7 +2.3 56 +8 +8 по сезону 995.2 978.9
09 14.09 ЮЗ 2 50 км 9/9 1440 м
[Sc]
+10.6 +0.2 49 +10 +10 тепло 996.8 980.5 +11.1
12 14.09 ЮЗ 2 20 км 10/5 1500 м
[Sc Ac und]
+7.3 +0.2 61 +6 +6 тепло 999.5 983.0
15 14.09 СЗ 2 20 км 10/5 1500 м
[Sc Ac und]
+6.0 +2.9 80 +4 +4 тепло 1001.8 985.2
18 14.09 ЮЗ 2 20 км в посл. час дождь 10/8 600 м
[Sc Ac As]
+4.7 +3.3 91 +2 +2 тепло 1003.5 986.8
21 14.09 штиль 0 20 км слаб. морось {туман} 10/10 500 м
[St]
+3.5 +3.0 97 +2 +2 по сезону 1005.5 988.7 +3.5 0.6
00 15.09 Ю 1 20 км слаб. морось {туман} 10/10 660 м
[St]
+3.9 +2.9 93 +2 +2 по сезону 1007.7 990.9 +3.4
03 15.09 Ю 1 50 км {морось} 10/6 600 м
[Sc Ac und]
+5.3 +2.3 81 +4 +5 по сезону 1008.4 991.7
06 15.09 Ю 1 50 км {ливн. осадки, морось} 10/6 1000 м
[Cb cap Ac und]
+6.4 +2.2 74 +6 +6 по сезону 1008.7 992.0
09 15.09 СВ 1 50 км 9/1 1000 м
[Sc Cs]
+5.9 +1.1 71 +5 +5 по сезону 1009.5 992.7 +6.7 0.4
12 15.09 штиль 0 20 км 6/0
[Ci fib]
+0.6 -0.2 94 -1 -1 по сезону 1010.8 993.6
15 15.09 штиль 0 20 км 9/0
[Ci fib]
-1.6 -2.2 96 -3 -3 по сезону 1011.2 993.9
18 15.09 ЮЗ 2 10 км 10/0
[Cs]
-1.7 -2.0 98 -6 -6 прохладно 1011.0 993.7
21 15.09 ЮЗ 2 500 м туман ?/? -1.9 -2.1 99 -6 -6 прохладно 1011.0 993.7 -2.3
00 16.09 ЮЗ 3 50 км в посл. час дождь со снегом {туман} 10/10 240 м
[St]
-0.7 -1.1 97 -6 -6 прохладно 1010.6 993.4
03 16.09 ЮЗ 2 50 км {снег} 10/10 750 м
[Sc]
+2.8 +1.5 91 -0 -0 по сезону 1009.8 992.8
06 16.09 ЮЗ 1 50 км в посл. час дождь 10/10 900 м
[Sc]
+4.9 +2.2 83 +4 +4 по сезону 1010.5 993.6
09 16.09 СВ 1 50 км 8/1 1000 м
[Sc Ac trans]
+5.4 +1.4 75 +4 +4 по сезону 1011.4 994.6 +5.8 0.6
12 16.09 СВ 1 20 км 1/0
[Ac trans]
+1.0 +0.5 96 -1 -1 по сезону 1013.0 995.9
15 16.09 С 1 20 км ясно -2.6 -2.9 98 -5 -5 прохладно 1014.0 996.7
18 16.09 В 1 200 м туман ?/? -3.7 -3.9 99 -6 -6 по сезону 1014.9 997.5
21 16.09 штиль 0 50 км в посл. час туман 4/4 300 м
[St]
-3.3 -3.7 97 -5 -5 прохладно 1015.2 997.7 -4.8
00 17.09 Ю 1 50 км {туман} 10/10 750 м
[Sc]
-0.6 -1.0 97 -3 -3 по сезону 1015.2 997.9
03 17.09 СЗ 3 50 км 10/10 750 м
[Sc]
+4.4 +0.8 77 +1 +1 по сезону 1013.8 996.9
06 17.09 СЗ 4 50 км 5/3 600 м
[Sc Ci fib]
+6.0 +0.3 67 +2 +3 прохладно 1013.1 996.3
09 17.09 СЗ 4 50 км 9/9 900 м
[Sc]
+4.8 +0.9 76 +1 +1 по сезону 1013.4 996.5 +6.5
12 17.09 СВ 1 20 км 9/9 800 м
[Sc]
+4.4 +1.3 80 +3 +3 по сезону 1013.4 996.5
15 17.09 Ю 1 20 км 9/9 870 м
[Sc]
+3.1 +1.3 88 +2 +2 по сезону 1013.1 996.1
18 17.09 СВ 1 20 км 10/10 720 м
[Sc]
+3.7 +1.7 87 +2 +2 тепло 1015.1 996.4

 

Местоположение метеостанции Верхоянск (Якутия, Россия): широта 67.57 долгота 133.40 высота над уровнем моря 136 м.

В архиве по умолчанию представлена погода в Верхоянске за последнюю неделю. Архивные данные за месяц целиком и за предыдущие месяцы, начиная с января 2011 года, Вы можете получить, выбрав интересующий диапазон дат из раскрывающегося списка и нажав кнопку "Ввод!".


*Определитесь, кто Вы:
робот инопланетянин человек

Внимание! Время в таблицах - всемирное. Для получения местного времени необходимо прибавить поправку, которая равна 10 ч.

Смотрите также архив погоды в соседних городах и на ближайших метеорологических станциях:

Погода в Батагае (Якутия, Россия) (52 км)
Погода в Екюччю (Якутия, Россия) (118 км)
Погода в Батагай-Алыте (Якутия, Россия) (129 км)
Погода в Усть-Чарках (Якутия, Россия) (162 км)
Погода в Иэме (Якутия, Россия) (274 км)
Погода в Усть-Куйге (Якутия, Россия) (284 км)
Погода в Себян-Кюеле (Якутия, Россия) (294 км)
Погода в Депутатском (Якутия, Россия) (329 км)
Погода в Юбилейной (Якутия, Россия) (373 км)
Погода в Джарджане (Якутия, Россия) (409 км)

Пояснения к столбцам:

Ветер - указаны скорость ветра в м/с - средняя за 10 мин, порывы в срок и между сроками (в фигурных скобках) и направление, откуда дует ветер: С - северный, СВ - северо-восточный, В - восточный, ЮВ - юго-восточный, Ю - южный, ЮЗ - юго-западный, З - западный, СЗ - северо-западный.
Видимость - горизонтальная дальность видимости в метрах или километрах. При видимости от 1 до 10 км при отсутствии осадков обычно наблюдается дымка, при ухудшении видимости до 1 км и менее - туман. В сухую погоду видимость может ухудшаться дымом, пылью или мглою.
Явления - указаны атмосферные явления, наблюдавшиеся в срок или в последний час перед сроком; фигурными скобками обозначены явления, наблюдавшиеся между сроками (за 1-3 часа до срока); квадратными скобками обозначены град или гололедные отложения с указанием их диаметра в мм.
Облачность - указаны через наклонную черту общая и нижняя облачность в баллах и высота нижней границы облаков в метрах; квадратными скобками обозначены формы облаков: Ci - перистые, Cs - перисто-слоистые, Cc - перисто-кучевые, Ac - высококучевые, As - высокослоистые, Sc - слоисто-кучевые, Ns - слоисто-дождевые, Cu - кучевые, Cb - кучево-дождевые. Подробнее классификацию облаков см. в Атласе облаков (PDF).
T - Температура воздуха - температура, измеренная на высоте 2 м над землей.
Td - Температура точки росы - температура, при понижении до которой содержащийся в воздухе водяной пар достигнет насыщения.
f - Относительная влажность воздуха - влажноcть воздуха, измеренная на высоте 2 м над землей.
Te - Эффективная температура - температура, которую ощущает одетый по сезону человек в тени. Характеристика душности погоды. При расчете учитывается влияние влажности воздуха и скорости ветра на теплоощущения человека.
Tes - Эффективная температура на солнце - температура, которую ощущает человек, с поправкой на солнечный нагрев. Характеристика знойности погоды. Зависит от высоты солнца над горизонтом, облачности и скорости ветра. Ночью, в пасмурную погоду, а также при ветре 12 м/с и более поправка равна нулю.
P - Атмосферное давление - приведенное к уровню моря атмосферное давление.
Po - Атмосферное давление - измеренное на уровне метеостанции атмосферное давление.
Tmin - Минимальная температура - минимум температуры воздуха на высоте 2 м над землей.
Tmax - Максимальная температура - максимум температуры воздуха на высоте 2 м над землей.
R - Количество осадков - Количество выпавших осадков за период времени, мм. При наведении курсора мыши на число - период времени, за который выпало указанное количество осадков.
R24 - Количество осадков - Количество выпавших осадков за 24 часа, мм.
S - Снежный покров - Высота снежного покрова, см. При наведении курсора мыши на число - состояние снежного покрова и степень покрытия местности в баллах.